Home > Weather > Durazno > Past weeks

Flag for Uruguay Weather for the Past 2 Weeks in Durazno, Uruguay

Now
72 °F

Clear.


Feels Like: 67 °F
Forecast: 72 / 98 °F
Wind: 9 mph from North

Location: Carrasco

Current Time: Feb 12, 2016 at 5:47:57 AM

Latest Report: Feb 12, 2016 at 5:00 AM


Visibility: 10 mi

Pressure: 29.80 "Hg

Humidity: 94%

Dew point: 70 °F

Location of DuraznoLocation

Historic Weather in Durazno — Graph

°F

Durazno Temperature Yesterday

Maximum temperature yesterday: 82 °F (at 2:00 PM)
Minimum temperature yesterday: 61 °F (at 4:00 AM)
Average temperature yesterday: 74 °F

High & Low Weather Summary for the Past Weeks

 TemperatureHumidityPressure
High90 °F (Feb 7, 2:00 PM)94% (Feb 2, 4:00 AM)30.12 "Hg (Feb 2, 4:00 AM)
Low57 °F (Feb 1, 7:00 AM)35% (Jan 28, 1:00 PM)29.74 "Hg (Feb 8, 7:00 PM)
Average75 °F71%29.95 "Hg
* Reported Jan 28 4:00 AM — Feb 12 4:00 AM, Durazno, Weather by CustomWeather, © 2016

Note: Actual official high and low records may vary slightly from our data, if they occured in-between our weather recording intervals... More about our weather records

Advertising

Durazno Weather History for the Previous 24 Hours

 ConditionsComfort  
Time TempWeatherWind HumidityBarometerVisibility
4:00 AM
Fri, Feb 12
72 °FClear.14 mph94%29.77 "Hg10 mi
3:00 AM73 °FClear.15 mph89%29.80 "Hg10 mi
2:00 AM73 °FClear.14 mph83%29.80 "Hg10 mi
1:00 AM75 °FClear.14 mph78%29.83 "Hg10 mi
12:00 AM77 °FClear.14 mph74%29.83 "Hg10 mi
11:00 PM
Thu, Feb 11
79 °FClear.12 mph65%29.83 "Hg10 mi
10:00 PM79 °FClear.8 mph74%29.83 "Hg10 mi
9:00 PM79 °FClear.13 mph79%29.83 "Hg10 mi
8:00 PM79 °FClear.12 mph74%29.83 "Hg10 mi
7:00 PM81 °FSunny.13 mph70%29.83 "Hg10 mi
6:00 PM81 °FSunny.15 mph70%29.83 "Hg10 mi
5:00 PM82 °FSunny.15 mph58%29.86 "Hg10 mi
4:00 PM82 °FSunny.14 mph58%29.86 "Hg10 mi
3:00 PM82 °FSunny.14 mph55%29.89 "Hg10 mi
2:00 PM82 °FSunny.12 mph58%29.92 "Hg10 mi
1:00 PM81 °FSunny.9 mph58%29.95 "Hg10 mi
12:00 PM79 °FSunny.7 mph61%29.98 "Hg10 mi
11:00 AM81 °FSunny.3 mph51%29.98 "Hg10 mi
10:00 AM77 °FSunny.7 mph57%29.98 "Hg10 mi
9:00 AM72 °FSunny.8 mph69%30.01 "Hg10 mi
8:00 AM68 °FSunny.7 mph73%30.01 "Hg10 mi
7:00 AM63 °FSunny.5 mph73%30.01 "Hg10 mi
6:00 AM63 °FClear.No wind73%30.01 "Hg10 mi
5:00 AM61 °FClear.No wind77%30.01 "Hg10 mi
Weather by CustomWeather, © 2016

See weather overviewHow to use our weather pages